Location: Colonia Mina de C?rbuni
(46.1667°N, 22.7167°E)
Time: 22:11:35
(UTC+00:00)

Tiros 1 - Pass Details

Date: 24 April 2024
Orbit: 624 x 657 km, 48.4° (Epoch: 20 May)

Event Time Altitude Azimuth Distance (km) Brightness Sun altitude
Rises 01:45:02 0° 288° (WNW) 2,920 - -16.1°
Reaches altitude 10° 01:47:22 10° 287° (WNW) 2,007 - -15.8°
Exits shadow 01:47:27 11° 287° (WNW) 1,973 9.3 -15.7°
Maximum altitude 01:51:58 77° 202° (SSW) 645 7.0 -15.1°
Drops below altitude 10° 01:56:32 10° 117° (ESE) 1,991 10.0 -14.5°
Sets 01:58:51 0° 115° (ESE) 2,895 10.9 -14.2°
